• In Deutschland
  • Länderverzeichnis
  • Für 7 Tage
  • Wassertemperatur
  • Satellitenkarten
  • Wetterkarte
  • Widgets
  • user-avatar
    Anmelden

    Stündliche Wetter Aulendorf

    Heute, 19 Juli, Donnerstag

    Zeit Temperatur Niederschläge Wind Luftdruck Luftfeuchtigkeit
    00:00 +16°C° 0 mm 1 m/S 714 mmHg 89%
    01:00 +15°C° 0 mm 1 m/S 714 mmHg 90%
    02:00 +15°C° 0 mm 1 m/S 714 mmHg 91%
    03:00 +15°C° 0 mm 1 m/S 713 mmHg 91%
    04:00 +14°C° 0 mm 1 m/S 713 mmHg 92%
    05:00 +16°C° 0 mm 1 m/S 713 mmHg 89%
    06:00 +18°C° 0 mm 1 m/S 713 mmHg 85%
    07:00 +19°C° 0 mm 1 m/S 714 mmHg 82%
    08:00 +21°C° 0 mm 1 m/S 714 mmHg 77%
    09:00 +21°C° 0 mm 2 m/S 714 mmHg 71%
    10:00 +24°C° 0 mm 2 m/S 714 mmHg 65%
    11:00 +25°C° 0 mm 2 m/S 714 mmHg 62%
    12:00 +25°C° 0 mm 2 m/S 714 mmHg 59%
    13:00 +26°C° 0 mm 2 m/S 714 mmHg 56%
    14:00 +26°C° 0 mm 2 m/S 713 mmHg 57%
    15:00 +26°C° 0 mm 2 m/S 713 mmHg 58%
    16:00 +26°C° 0 mm 3 m/S 713 mmHg 59%
    17:00 +25°C° 0 mm 2 m/S 713 mmHg 65%
    18:00 +24°C° 0 mm 2 m/S 713 mmHg 71%
    19:00 +23°C° 0 mm 2 m/S 713 mmHg 77%
    20:00 +20°C° 0 mm 2 m/S 713 mmHg 80%
    21:00 +18°C° 0 mm 2 m/S 713 mmHg 83%
    22:00 +18°C° 0 mm 1 m/S 713 mmHg 87%
    23:00 +16°C° 0 mm 1 m/S 713 mmHg 87%

    Morgen, 20 Juli, Freitag

    Zeit Temperatur Niederschläge Wind Luftdruck Luftfeuchtigkeit
    00:00 +16°C° 0 mm 1 m/S 713 mmHg 88%
    01:00 +15°C° 0 mm 1 m/S 712 mmHg 88%
    02:00 +15°C° 0 mm 1 m/S 712 mmHg 89%
    03:00 +15°C° 0 mm 1 m/S 712 mmHg 89%
    04:00 +14°C° 0 mm 1 m/S 712 mmHg 89%
    05:00 +16°C° 0 mm 1 m/S 712 mmHg 86%
    06:00 +18°C° 0 mm 1 m/S 712 mmHg 83%
    07:00 +17°C° 0 mm 0 m/S 712 mmHg 79%
    08:00 +21°C° 0 mm 1 m/S 712 mmHg 73%
    09:00 +23°C° 0 mm 1 m/S 712 mmHg 68%
    10:00 +25°C° 0 mm 1 m/S 712 mmHg 62%
    11:00 +26°C° 0,1 mm 1 m/S 712 mmHg 60%
    12:00 +27°C° 0,1 mm 1 m/S 712 mmHg 59%
    13:00 +27°C° 0,1 mm 1 m/S 711 mmHg 57%
    14:00 +27°C° 0,1 mm 1 m/S 711 mmHg 57%
    15:00 +28°C° 0,1 mm 1 m/S 711 mmHg 56%
    16:00 +28°C° 0,1 mm 1 m/S 711 mmHg 55%
    17:00 +27°C° 0,1 mm 1 m/S 711 mmHg 62%
    18:00 +25°C° 0,1 mm 1 m/S 710 mmHg 68%
    19:00 +24°C° 0,1 mm 1 m/S 710 mmHg 74%
    20:00 +23°C° 0,7 mm 1 m/S 710 mmHg 78%
    21:00 +21°C° 0,7 mm 1 m/S 710 mmHg 82%
    22:00 +19°C° 0,7 mm 2 m/S 710 mmHg 85%
    23:00 +19°C° 1,7 mm 2 m/S 710 mmHg 88%

    übermorgen, 21 Juli, Samstag

    Zeit Temperatur Niederschläge Wind Luftdruck Luftfeuchtigkeit
    00:00 +18°C° 1,7 mm 2 m/S 710 mmHg 91%
    01:00 +18°C° 1,7 mm 2 m/S 710 mmHg 94%
    02:00 +17°C° 0,2 mm 2 m/S 709 mmHg 95%
    03:00 +17°C° 0,2 mm 2 m/S 709 mmHg 95%
    04:00 +16°C° 0,2 mm 1 m/S 709 mmHg 95%
    05:00 +17°C° 0,2 mm 2 m/S 709 mmHg 95%
    06:00 +18°C° 0,2 mm 2 m/S 710 mmHg 94%
    07:00 +18°C° 0,2 mm 3 m/S 710 mmHg 93%
    08:00 +19°C° 0,5 mm 3 m/S 710 mmHg 88%
    09:00 +20°C° 0,5 mm 3 m/S 710 mmHg 83%
    10:00 +22°C° 0,5 mm 3 m/S 710 mmHg 77%
    11:00 +22°C° 0,5 mm 3 m/S 711 mmHg 75%
    12:00 +24°C° 0,5 mm 3 m/S 711 mmHg 73%
    13:00 +24°C° 0,5 mm 3 m/S 711 mmHg 70%
    14:00 +24°C° 0,6 mm 3 m/S 711 mmHg 72%
    15:00 +24°C° 0,6 mm 2 m/S 710 mmHg 74%
    16:00 +24°C° 0,6 mm 2 m/S 710 mmHg 76%
    17:00 +23°C° 0,5 mm 2 m/S 710 mmHg 80%
    18:00 +21°C° 0,5 mm 2 m/S 710 mmHg 83%
    19:00 +21°C° 0,5 mm 1 m/S 710 mmHg 87%
    20:00 +20°C° 0,3 mm 1 m/S 711 mmHg 88%
    21:00 +19°C° 0,3 mm 1 m/S 711 mmHg 90%
    22:00 +16°C° 0,3 mm 1 m/S 711 mmHg 92%
    23:00 +16°C° 0,2 mm 1 m/S 711 mmHg 93%

    22 Juli, Sonntag

    Zeit Temperatur Niederschläge Wind Luftdruck Luftfeuchtigkeit
    00:00 +16°C° 0,2 mm 1 m/S 711 mmHg 93%
    01:00 +15°C° 0,2 mm 1 m/S 711 mmHg 94%
    02:00 +15°C° 0 mm 1 m/S 711 mmHg 94%
    03:00 +15°C° 0 mm 1 m/S 711 mmHg 94%
    04:00 +14°C° 0 mm 1 m/S 710 mmHg 94%
    05:00 +15°C° 0 mm 1 m/S 711 mmHg 93%
    06:00 +16°C° 0 mm 1 m/S 711 mmHg 92%
    07:00 +18°C° 0 mm 1 m/S 711 mmHg 91%
    08:00 +18°C° 0,3 mm 2 m/S 711 mmHg 85%
    09:00 +20°C° 0,3 mm 2 m/S 711 mmHg 79%
    10:00 +21°C° 0,3 mm 2 m/S 711 mmHg 72%
    11:00 +23°C° 0,3 mm 2 m/S 711 mmHg 70%
    12:00 +23°C° 0,3 mm 2 m/S 711 mmHg 67%
    13:00 +24°C° 0,3 mm 3 m/S 711 mmHg 65%
    14:00 +24°C° 0,5 mm 2 m/S 711 mmHg 67%
    15:00 +24°C° 0,5 mm 2 m/S 711 mmHg 68%
    16:00 +24°C° 0,5 mm 2 m/S 711 mmHg 70%
    17:00 +23°C° 0,7 mm 2 m/S 712 mmHg 74%
    18:00 +22°C° 0,7 mm 1 m/S 712 mmHg 79%
    19:00 +21°C° 0,7 mm 1 m/S 712 mmHg 83%
    20:00 +20°C° 0,2 mm 1 m/S 712 mmHg 84%
    21:00 +18°C° 0,2 mm 1 m/S 713 mmHg 86%
    22:00 +16°C° 0,2 mm 1 m/S 713 mmHg 87%
    23:00 +15°C° 0 mm 1 m/S 713 mmHg 88%

    23 Juli, Montag

    Zeit Temperatur Niederschläge Wind Luftdruck Luftfeuchtigkeit
    00:00 +15°C° 0 mm 1 m/S 713 mmHg 89%
    01:00 +14°C° 0 mm 1 m/S 713 mmHg 90%
    02:00 +14°C° 0 mm 1 m/S 713 mmHg 91%
    03:00 +14°C° 0 mm 1 m/S 713 mmHg 91%
    04:00 +12°C° 0 mm 0 m/S 713 mmHg 91%
    05:00 +14°C° 0 mm 0 m/S 713 mmHg 90%
    06:00 +15°C° 0 mm 0 m/S 713 mmHg 89%
    07:00 +16°C° 0 mm 0 m/S 713 mmHg 88%
    08:00 +18°C° 0 mm 0 m/S 713 mmHg 81%
    09:00 +21°C° 0 mm 1 m/S 714 mmHg 73%
    10:00 +23°C° 0 mm 1 m/S 714 mmHg 65%
    11:00 +24°C° 0 mm 1 m/S 713 mmHg 63%
    12:00 +24°C° 0 mm 2 m/S 713 mmHg 60%
    13:00 +25°C° 0 mm 2 m/S 713 mmHg 57%
    14:00 +25°C° 0 mm 2 m/S 713 mmHg 58%
    15:00 +25°C° 0 mm 2 m/S 713 mmHg 58%
    16:00 +26°C° 0 mm 2 m/S 713 mmHg 59%
    17:00 +25°C° 0 mm 2 m/S 713 mmHg 65%
    18:00 +24°C° 0 mm 2 m/S 713 mmHg 71%
    19:00 +23°C° 0 mm 2 m/S 713 mmHg 77%
    20:00 +20°C° 0 mm 2 m/S 713 mmHg 81%
    21:00 +19°C° 0 mm 1 m/S 713 mmHg 85%
    22:00 +18°C° 0 mm 1 m/S 713 mmHg 89%
    23:00 +16°C° 0 mm 1 m/S 713 mmHg 90%

    24 Juli, Dienstag

    Zeit Temperatur Niederschläge Wind Luftdruck Luftfeuchtigkeit
    00:00 +16°C° 0 mm 1 m/S 713 mmHg 91%
    01:00 +15°C° 0 mm 1 m/S 712 mmHg 92%
    02:00 +15°C° 0 mm 1 m/S 712 mmHg 92%
    03:00 +15°C° 0 mm 1 m/S 712 mmHg 92%
    04:00 +14°C° 0 mm 1 m/S 712 mmHg 92%
    05:00 +16°C° 0 mm 1 m/S 712 mmHg 90%
    06:00 +18°C° 0 mm 1 m/S 712 mmHg 87%
    07:00 +19°C° 0 mm 1 m/S 712 mmHg 85%
    08:00 +21°C° 0 mm 1 m/S 712 mmHg 79%
    09:00 +23°C° 0 mm 2 m/S 712 mmHg 73%
    10:00 +24°C° 0 mm 2 m/S 712 mmHg 68%
    11:00 +25°C° 0 mm 2 m/S 712 mmHg 65%
    12:00 +26°C° 0 mm 3 m/S 712 mmHg 62%
    13:00 +27°C° 0 mm 3 m/S 712 mmHg 60%
    14:00 +27°C° 0 mm 3 m/S 712 mmHg 60%
    15:00 +28°C° 0 mm 3 m/S 712 mmHg 60%
    16:00 +28°C° 0 mm 3 m/S 712 mmHg 61%
    17:00 +27°C° 0 mm 2 m/S 712 mmHg 67%
    18:00 +26°C° 0 mm 2 m/S 712 mmHg 74%
    19:00 +24°C° 0 mm 2 m/S 712 mmHg 80%
    20:00 +23°C° 0 mm 2 m/S 712 mmHg 84%
    21:00 +20°C° 0 mm 2 m/S 712 mmHg 88%
    22:00 +20°C° 0 mm 1 m/S 712 mmHg 92%
    23:00 +19°C° 0 mm 1 m/S 712 mmHg 92%
    Mehr zeigen